Temp
71 66 61 67 70 73 72 70 68 74 81 71 67 68 71 74 74 74 71 69 70 72 76 76 80 87 82 81 80 80 79 77 77 74 72 70 72 72 72 74 76 77 78 77
67 62 74 76 77 74 72 67 68 74 81 73 66 68 70 73 72 72 73 70 70 70 73 77 78 83 83 82 81 79 79 76 77 78 75 73 72 72 73 74 74 77 79 80
64 73 80 77 76 72 65 61 68 69 76 73 68 63 64 71 72 74 74 73 73 72 69 71 74 81 83 81 81 79 77 76 78 75 73 72 72 72 72 72 73 76 76 78
69 79 78 74 74 72 55 77 76 76 67 58 68 53 59 64 67 69 73 70 70 73 73 71 71 77 80 80 83 81 79 76 77 74 75 72 70 69 71 71 73 76 77 78
71 75 75 71 75 78 72 79 75 75 66 59 63 56 60 61 66 68 71 74 74 72 73 71 71 70 71 72 72 73 74 74 77 77 77 74 70 69 71 71 73 73 75 78
73 81 78 77 80 79 81 73 69 64 60 53 58 59 55 57 61 67 72 73 75 78 74 71 69 71 72 71 69 68 70 70 72 76 74 74 71 70 70 70 71 71 72 73
70 74 79 81 69 75 72 59 50 51 50 50 54 57 54 63 68 67 70 70 73 73 73 67 67 68 70 68 70 66 69 69 69 71 73 73 71 71 71 71 70 69 70 72
58 61 71 78 76 69 65 62 52 45 47 50 57 52 57 67 70 71 71 74 74 73 71 68 68 69 69 72 71 72 70 70 72 74 72 72 72 71 70 72 71 71 69 71
58 63 79 79 80 77 65 59 65 56 50 51 51 58 66 65 66 67 73 77 76 72 72 69 70 71 70 71 70 70 71 72 71 70 72 74 73 72 71 73 72 70 70 74
67 61 70 79 80 76 67 71 59 54 47 43 51 54 53 58 58 64 68 74 74 72 72 69 71 72 69 70 70 70 72 72 71 71 72 75 74 73 72 73 71 72 73 75
67 63 67 74 67 66 67 63 59 58 54 49 44 50 64 61 61 63 66 71 72 70 72 70 73 72 69 70 69 69 70 71 69 71 73 76 74 74 73 72 74 73 73 74
67 60 55 62 73 76 70 63 60 55 53 52 50 52 70 65 65 66 66 72 72 71 74 72 73 72 69 68 68 68 68 70 72 76 76 73 74 73 73 73 73 74 73 73
67 57 52 58 64 72 67 65 60 59 53 52 50 54 62 63 65 67 69 68 71 72 73 72 71 70 70 70 68 69 70 72 77 78 76 73 72 74 73 75 74 73 73 73
70 56 55 52 58 62 64 69 69 59 52 52 55 55 57 60 62 64 66 69 68 73 73 71 69 69 70 70 70 69 69 74 76 75 75 74 73 75 75 74 74 74 73 73
67 57 56 59 65 68 67 68 70 63 62 56 60 59 57 59 62 64 68 72 74 73 72 70 70 69 70 70 71 71 71 70 72 74 74 73 73 74 74 74 74 74 73 74
64 58 55 58 68 67 66 69 69 69 66 62 61 56 62 63 64 65 69 73 71 72 71 71 72 72 71 72 73 74 72 72 72 73 74 73 73 72 74 74 75 74 74 73
61 58 54 50 62 62 56 65 67 67 68 65 58 59 63 63 66 66 68 71 72 72 72 71 70 71 71 72 71 73 74 73 72 73 74 75 75 73 74 74 74 73 73 71
61 56 52 51 51 46 61 69 72 66 68 68 65 65 65 63 63 67 68 69 70 72 72 71 71 71 70 72 72 71 72 73 72 71 72 73 74 74 74 73 73 73 73 72
65 56 52 51 47 56 64 68 67 61 60 67 64 66 65 66 65 64 69 70 70 70 70 70 71 70 70 70 72 72 71 72 73 73 72 72 73 73 73 73 74 73 71 70
61 60 57 49 48 47 58 70 73 68 52 67 67 65 65 64 55 58 67 70 72 72 72 71 72 72 71 70 71 70 69 70 69 72 71 70 72 71 72 73 75 75 73 73
55 53 54 51 49 54 66 71 73 54 53 67 65 64 61 59 62 67 68 70 71 72 72 72 70 70 70 69 70 68 68 68 69 70 70 70 72 71 73 72 71 74 73 72
54 52 51 50 47 48 69 69 60 60 63 67 68 67 66 67 68 68 69 69 70 70 71 72 69 69 69 69 68 66 67 68 68 68 69 68 70 70 73 72 71 71 72 70
53 56 53 54 53 61 64 64 66 65 65 65 66 67 68 67 66 67 67 65 67 66 68 69 67 66 67 67 67 66 67 67 68 67 66 66 67 69 70 68 67 68 69 64
58 61 57 57 61 61 65 66 68 67 66 68 68 67 67 64 66 63 65 65 66 67 68 68 67 67 66 67 67 66 67 67 66 65 65 65 65 64 65 64 65 65 67 65
59 59 57 54 56 61 65 65 67 69 70 71 71 69 67 66 64 64 65 65 65 65 66 66 65 63 65 65 65 66 67 66 65 64 63 63 63 63 63 61 61 63 62 61
58 57 53 52 59 59 59 64 69 68 67 67 67 68 70 67 67 65 65 63 63 63 63 63 63 62 63 64 64 65 65 64 63 63 63 62 61 62 62 63 60 54 53 51
MSLP
1007.34 1008.21 1008.30 1007.67 1007.90 1007.63 1007.38 1006.77 1005.70 1004.69 1004.54 1005.59 1006.69 1006.86 1007.16 1007.24 1007.54 1008.28 1009.06 1009.64 1009.88 1009.93 1009.22 1009.80 1009.31 1009.39 1010.11 1010.79 1011.32 1011.67 1012.11 1012.55 1013.15 1013.79 1014.36 1014.88 1015.14 1015.07 1015.33 1015.45 1015.64 1015.88 1015.79 1015.96
1008.23 1008.08 1007.22 1006.95 1007.07 1007.25 1006.70 1005.84 1005.51 1005.09 1004.76 1005.36 1006.77 1007.13 1007.65 1008.17 1008.46 1009.26 1009.14 1009.84 1009.91 1009.96 1009.23 1009.61 1008.74 1009.03 1009.75 1010.32 1010.60 1011.22 1011.62 1012.35 1012.56 1013.01 1013.42 1014.17 1014.66 1014.94 1014.95 1015.00 1015.26 1015.46 1015.47 1015.50
1007.85 1006.59 1006.27 1006.67 1006.13 1006.33 1005.86 1005.67 1005.49 1005.62 1005.29 1006.01 1007.10 1007.81 1007.92 1008.20 1008.44 1008.55 1008.36 1008.77 1009.07 1009.43 1010.21 1009.55 1008.62 1008.91 1009.61 1010.18 1010.58 1010.90 1011.09 1011.75 1012.23 1012.60 1013.20 1014.10 1014.60 1014.99 1015.14 1015.16 1015.29 1015.17 1015.33 1015.21
1007.15 1005.68 1005.82 1005.51 1005.35 1005.08 1005.40 1004.97 1005.41 1005.62 1005.99 1006.95 1007.51 1008.66 1008.42 1008.67 1008.19 1008.50 1008.76 1009.19 1009.12 1008.67 1008.79 1010.28 1010.38 1009.99 1010.06 1010.41 1010.87 1010.20 1010.71 1011.20 1011.89 1012.38 1012.90 1013.48 1013.87 1014.58 1014.60 1014.66 1014.86 1014.93 1014.99 1015.00
1006.34 1005.83 1005.16 1004.71 1004.41 1004.46 1004.87 1004.67 1005.34 1005.67 1006.59 1007.52 1008.09 1009.28 1008.84 1009.13 1008.92 1009.07 1009.09 1009.53 1009.26 1009.26 1009.12 1010.03 1009.77 1010.04 1010.12 1010.33 1011.36 1012.36 1011.50 1011.82 1012.02 1012.27 1012.61 1013.28 1013.67 1013.95 1014.15 1014.37 1014.67 1014.93 1014.80 1014.73
1006.16 1005.06 1004.57 1003.88 1003.66 1003.85 1004.20 1005.03 1005.79 1006.87 1007.87 1009.01 1008.63 1009.63 1010.63 1010.93 1011.00 1009.45 1009.99 1009.45 1009.06 1007.66 1008.87 1009.91 1010.26 1010.33 1010.00 1009.89 1010.38 1011.44 1013.05 1011.88 1012.47 1012.22 1012.49 1012.87 1013.17 1013.80 1014.22 1014.34 1014.44 1014.75 1014.77 1014.70
1005.90 1004.74 1003.63 1003.41 1003.71 1003.88 1004.67 1006.51 1007.74 1008.99 1009.66 1009.81 1009.68 1010.20 1011.94 1011.27 1010.43 1010.35 1010.19 1009.37 1009.12 1009.46 1009.93 1010.69 1010.46 1010.45 1010.15 1010.29 1010.10 1011.15 1012.92 1012.15 1012.88 1012.66 1012.31 1012.49 1012.57 1013.21 1013.62 1014.20 1014.20 1014.57 1014.78 1014.74
1006.48 1005.03 1003.71 1003.19 1003.29 1004.08 1004.88 1006.53 1008.18 1009.36 1010.42 1010.37 1010.24 1011.33 1011.76 1011.20 1010.40 1010.12 1009.03 1008.13 1008.09 1009.32 1010.01 1011.22 1011.60 1010.02 1009.70 1010.11 1009.80 1011.38 1012.10 1012.16 1012.02 1012.02 1012.54 1012.50 1012.50 1012.68 1013.35 1013.46 1013.84 1013.92 1014.38 1014.42
1006.03 1005.06 1003.49 1002.79 1002.70 1003.66 1004.73 1006.15 1007.03 1008.53 1010.05 1010.90 1011.43 1011.58 1011.60 1011.77 1010.98 1009.42 1008.33 1007.24 1007.48 1008.00 1009.77 1010.18 1010.62 1010.22 1010.32 1009.87 1010.52 1011.21 1010.76 1011.08 1010.85 1010.91 1011.94 1011.96 1012.04 1012.44 1012.95 1012.94 1013.26 1013.40 1013.92 1014.01
1005.69 1005.41 1004.35 1003.45 1003.05 1003.84 1004.53 1005.43 1006.93 1008.81 1010.47 1011.67 1011.97 1011.84 1012.28 1012.21 1011.49 1010.14 1009.11 1007.92 1007.54 1007.47 1008.90 1009.52 1010.07 1010.60 1010.90 1010.36 1010.53 1010.98 1011.06 1010.37 1009.90 1010.67 1011.27 1011.47 1011.57 1011.82 1012.15 1012.45 1012.83 1012.97 1013.16 1013.67
1005.32 1005.95 1005.79 1004.56 1004.65 1004.74 1005.12 1005.73 1007.09 1008.56 1010.07 1011.17 1012.21 1011.62 1009.76 1010.52 1011.03 1010.67 1009.58 1008.43 1008.51 1008.71 1008.47 1008.97 1009.59 1010.74 1011.03 1010.63 1010.23 1010.59 1011.08 1010.56 1010.33 1010.66 1011.07 1010.98 1010.91 1011.19 1011.71 1012.16 1012.30 1012.36 1012.38 1012.95
1005.70 1006.86 1007.25 1006.66 1005.54 1004.97 1005.27 1006.02 1006.98 1008.86 1010.04 1010.31 1010.87 1010.24 1008.97 1010.17 1010.89 1010.53 1009.65 1009.14 1009.26 1009.01 1008.31 1009.08 1009.41 1009.56 1010.43 1010.95 1010.21 1010.01 1010.12 1010.28 1010.10 1010.06 1010.13 1010.37 1010.32 1010.91 1011.43 1011.79 1011.86 1011.73 1011.81 1012.27
1005.87 1007.37 1008.22 1007.46 1006.59 1005.30 1005.95 1006.19 1006.77 1007.89 1009.03 1009.94 1010.78 1010.11 1009.80 1010.03 1010.59 1010.02 1010.41 1009.94 1010.01 1009.14 1008.58 1009.38 1009.56 1009.52 1009.68 1010.08 1010.06 1009.52 1009.66 1009.65 1009.51 1009.59 1009.74 1010.39 1010.39 1010.60 1010.97 1011.12 1011.21 1011.26 1011.42 1011.67
1006.08 1008.14 1008.78 1008.89 1008.43 1007.70 1007.08 1006.39 1006.31 1007.44 1008.75 1009.43 1009.63 1009.72 1010.18 1010.24 1010.51 1010.28 1010.79 1010.41 1009.68 1009.40 1008.75 1008.88 1009.51 1010.10 1009.82 1009.97 1010.11 1009.39 1009.52 1009.67 1009.47 1009.45 1009.52 1009.83 1009.88 1010.18 1010.28 1010.49 1010.42 1010.74 1010.97 1011.35
1006.96 1008.61 1008.77 1008.67 1008.27 1007.62 1007.32 1006.85 1006.48 1006.90 1007.04 1008.36 1008.49 1009.25 1009.87 1010.55 1010.52 1010.78 1010.34 1009.95 1009.76 1009.57 1009.27 1009.32 1009.55 1009.98 1010.16 1010.05 1009.37 1009.21 1009.22 1009.56 1009.39 1009.21 1009.08 1009.29 1009.33 1009.46 1009.73 1009.71 1009.77 1010.18 1010.56 1010.72
1007.80 1008.66 1008.90 1009.15 1008.42 1008.03 1007.60 1006.97 1006.37 1006.44 1006.98 1007.57 1008.44 1009.76 1009.96 1010.54 1010.68 1010.35 1010.08 1010.30 1009.84 1009.63 1009.84 1010.14 1010.16 1009.90 1009.74 1009.45 1009.55 1009.40 1009.17 1009.30 1009.62 1009.19 1009.02 1008.97 1009.07 1009.00 1009.22 1009.30 1009.33 1009.76 1009.95 1010.10
1008.29 1009.03 1009.75 1009.76 1009.05 1008.57 1007.94 1007.20 1007.00 1006.98 1007.27 1007.66 1008.58 1009.68 1010.12 1010.55 1010.40 1010.38 1010.03 1009.86 1010.02 1010.08 1010.00 1010.32 1010.36 1010.30 1009.89 1009.50 1009.46 1009.24 1008.95 1008.67 1008.67 1008.75 1008.90 1008.65 1008.68 1008.68 1008.78 1008.79 1008.85 1009.17 1009.42 1009.56
1008.33 1009.41 1010.09 1010.52 1010.00 1009.63 1008.22 1007.40 1007.25 1007.75 1008.18 1008.27 1008.98 1010.01 1010.18 1010.45 1010.48 1010.27 1010.59 1010.53 1010.19 1010.05 1010.24 1010.41 1010.34 1010.19 1010.05 1009.73 1009.52 1009.34 1008.96 1008.63 1008.49 1008.71 1008.55 1008.73 1008.65 1008.50 1008.28 1008.18 1008.27 1008.44 1008.73 1009.06
1007.56 1009.17 1010.66 1011.00 1010.85 1009.83 1008.34 1007.87 1007.65 1008.00 1009.88 1009.78 1009.82 1010.37 1010.87 1011.24 1011.06 1011.15 1010.87 1010.55 1010.32 1009.97 1010.02 1010.16 1010.26 1010.40 1010.19 1009.90 1009.65 1009.36 1009.16 1008.80 1008.82 1009.30 1009.14 1008.99 1008.09 1008.09 1008.09 1008.07 1007.94 1008.03 1008.49 1008.60
1007.86 1008.45 1009.93 1011.07 1011.02 1010.12 1008.91 1007.91 1007.39 1007.96 1010.23 1010.65 1010.42 1010.83 1011.24 1011.74 1011.75 1011.42 1010.73 1010.28 1009.89 1009.72 1009.82 1009.91 1010.12 1010.21 1010.18 1010.25 1009.99 1009.83 1009.92 1009.75 1009.74 1009.33 1009.00 1009.02 1008.40 1007.72 1007.47 1007.25 1007.27 1007.02 1007.32 1007.52
1008.94 1009.59 1010.16 1010.65 1010.67 1009.72 1008.66 1008.09 1007.52 1008.74 1010.82 1010.64 1010.99 1011.40 1011.60 1011.71 1011.33 1010.76 1010.50 1010.29 1010.04 1009.87 1009.76 1009.72 1009.77 1010.04 1010.15 1010.12 1009.95 1010.15 1010.05 1010.05 1009.84 1009.58 1009.24 1008.89 1008.36 1008.02 1007.32 1007.22 1006.70 1006.15 1006.15 1006.81
1009.49 1010.06 1010.52 1010.83 1010.66 1009.87 1008.60 1008.41 1008.99 1009.92 1010.07 1010.03 1010.13 1010.40 1010.72 1010.80 1010.82 1010.80 1010.76 1010.65 1010.46 1010.43 1010.10 1010.09 1010.20 1010.25 1010.01 1009.99 1009.95 1010.06 1009.92 1009.60 1009.56 1009.43 1009.22 1008.92 1008.46 1008.09 1007.78 1007.51 1007.04 1006.13 1005.34 1005.05
1010.24 1010.16 1010.43 1011.03 1010.67 1009.80 1009.25 1009.03 1009.36 1009.66 1009.83 1010.06 1010.11 1010.25 1010.27 1010.45 1010.55 1010.51 1010.53 1010.62 1010.70 1010.60 1010.50 1010.41 1010.51 1010.52 1010.24 1010.08 1009.99 1010.06 1009.64 1009.38 1009.19 1009.05 1008.95 1008.75 1008.59 1008.33 1008.06 1007.99 1007.67 1006.90 1006.21 1005.41
1010.18 1009.66 1010.50 1010.72 1010.95 1010.38 1010.05 1009.87 1009.72 1009.72 1009.78 1009.74 1009.77 1009.85 1009.97 1010.17 1010.21 1010.42 1010.51 1010.63 1010.56 1010.36 1010.25 1010.14 1010.16 1010.10 1010.00 1009.60 1009.51 1009.41 1009.18 1009.00 1008.95 1008.82 1008.71 1008.61 1008.39 1008.27 1008.32 1008.47 1008.36 1007.44 1006.97 1006.53
1010.41 1009.99 1010.57 1011.16 1011.09 1010.87 1010.54 1010.18 1009.97 1009.90 1009.89 1009.89 1009.80 1009.84 1009.91 1009.99 1010.14 1010.23 1010.38 1010.46 1010.28 1010.15 1009.95 1009.88 1009.78 1009.72 1009.65 1009.35 1009.18 1008.95 1008.70 1008.55 1008.55 1008.51 1008.49 1008.47 1008.45 1008.26 1008.35 1008.69 1008.75 1008.14 1007.75 1007.66
1010.38 1010.27 1010.56 1010.98 1010.62 1010.58 1010.72 1010.24 1009.97 1010.11 1010.14 1010.10 1010.11 1010.12 1010.11 1010.03 1010.01 1010.02 1010.29 1010.44 1010.33 1010.25 1010.02 1009.95 1009.92 1009.74 1009.56 1009.30 1009.06 1008.77 1008.46 1008.43 1008.37 1008.27 1008.04 1007.95 1007.92 1008.05 1008.10 1008.34 1008.61 1008.27 1007.75 1007.37
Wind_Speed
3 4 8 13 8 6 6 8 3 7 7 6 4 5 8 5 2 6 3 14 18 17 12 14 8 15 15 12 14 15 14 12 9 6 5 4 4 3 1 3 4 6 6 6
5 7 15 9 8 7 10 2 6 6 3 5 4 4 1 5 1 3 4 8 13 15 18 5 6 13 16 18 18 16 15 12 10 8 4 4 3 2 3 3 4 6 8 7
7 16 4 7 16 2 3 2 5 6 5 4 5 7 4 1 4 4 6 11 9 12 6 4 6 15 14 16 18 17 16 14 11 8 6 4 4 2 2 2 3 4 5 6
8 13 8 8 7 4 3 7 6 6 5 3 3 7 4 6 6 5 6 7 10 14 9 2 6 3 9 6 10 15 13 14 11 10 9 6 6 5 4 4 3 4 7 7
13 7 10 4 5 5 9 7 6 3 3 2 2 4 7 5 9 11 7 9 4 11 8 6 9 10 10 10 9 9 2 5 7 10 10 8 5 4 3 3 5 4 4 5
11 5 5 8 3 4 3 4 8 7 3 3 3 6 6 6 6 10 14 17 23 25 10 9 9 8 8 8 8 10 15 5 4 8 8 11 10 8 5 4 4 3 3 4
8 7 7 4 1 6 8 7 5 7 5 7 5 5 3 4 10 5 7 12 17 18 5 4 10 9 9 8 13 15 17 3 3 3 8 11 9 8 8 6 5 5 3 3
4 9 2 2 9 8 5 9 7 4 3 3 6 2 2 4 6 10 5 12 10 7 4 4 8 10 9 13 12 12 7 2 2 7 12 7 7 6 5 7 4 5 4 4
1 5 6 4 5 10 3 0 7 4 2 5 3 3 7 7 9 10 10 10 12 14 4 9 11 10 9 8 10 11 12 12 9 13 10 8 8 8 7 8 5 5 5 5
5 3 3 8 5 4 3 3 6 5 1 1 3 5 4 2 3 2 8 7 12 12 1 11 13 11 4 8 8 11 11 13 10 10 7 9 9 8 8 7 7 7 7 7
5 5 9 7 3 4 5 5 4 5 6 6 3 8 9 14 12 11 10 9 5 11 8 9 14 12 6 7 9 6 5 7 4 6 9 14 8 8 7 7 7 8 6 7
3 6 2 3 8 4 3 1 5 6 8 2 5 8 6 8 13 9 10 7 4 13 7 9 14 11 6 7 5 8 9 6 7 10 10 8 7 6 7 7 7 7 7 6
2 3 4 11 11 10 6 5 4 4 4 4 6 7 3 7 5 9 5 8 6 8 5 10 9 10 10 10 8 9 8 12 11 9 6 5 6 8 9 10 8 7 7 8
9 3 7 7 8 5 8 10 8 5 4 3 6 4 5 5 6 6 6 5 6 6 6 5 4 6 10 8 7 6 7 7 11 8 7 8 9 10 10 9 8 8 8 9
6 2 2 1 2 4 3 8 11 7 8 6 6 5 2 5 5 2 5 5 5 9 11 9 8 6 3 5 5 6 4 5 6 6 6 9 8 9 8 8 7 8 7 8
5 2 3 6 6 6 5 9 11 4 5 5 9 6 5 6 6 5 8 1 7 10 9 7 6 6 6 3 5 3 5 8 6 8 7 6 7 7 8 10 11 8 9 8
2 3 3 4 4 6 6 5 7 6 8 4 3 7 5 4 7 5 7 5 6 7 9 7 4 2 4 5 5 4 6 7 8 5 6 6 6 7 9 9 8 8 10 7
4 5 3 3 4 2 9 5 14 17 13 10 11 8 4 3 2 7 5 2 5 6 7 7 8 8 6 4 5 4 6 3 7 6 6 5 6 6 7 7 9 8 7 9
8 6 3 5 4 5 3 7 4 6 7 8 7 8 8 4 6 3 3 0 4 5 5 5 5 3 5 8 6 7 8 8 9 6 5 7 7 8 7 8 9 8 6 6
7 6 6 2 3 4 4 8 3 6 5 5 9 8 8 3 2 4 5 5 5 5 4 5 4 3 7 5 6 7 6 7 7 8 6 5 6 9 8 9 11 9 7 10
3 2 6 3 3 4 4 5 5 4 6 5 8 7 3 3 6 3 3 4 3 3 4 3 3 3 4 3 4 4 4 5 5 5 6 7 7 8 8 7 6 8 9 9
3 3 2 3 2 3 4 5 6 6 1 4 3 4 4 6 5 3 4 5 6 7 8 6 3 4 4 3 3 2 3 4 4 4 6 7 9 8 7 8 9 6 5 4
4 5 4 5 5 4 5 4 3 4 6 3 5 4 5 4 3 3 3 4 3 3 2 2 2 3 5 5 3 4 6 5 5 4 5 6 6 7 7 6 7 5 2 13
4 1 4 4 6 3 6 5 5 4 4 3 3 3 1 0 3 3 2 0 2 3 3 3 3 4 5 6 6 7 6 6 5 5 5 6 6 6 5 4 2 3 2 7
6 2 3 3 1 3 5 4 4 5 6 5 5 3 2 3 1 2 3 5 6 6 5 4 6 6 7 6 6 7 7 5 6 6 6 5 4 6 2 3 2 3 1 2
1 4 4 5 4 6 4 1 3 6 3 2 3 5 7 4 6 5 5 4 3 5 4 4 5 3 4 5 6 6 6 6 7 7 6 5 4 4 3 2 2 4 5 10
Wind_Direction
285 91 248 245 205 235 258 274 313 291 290 100 169 193 228 215 259 360 98 139 158 187 217 196 189 186 167 169 170 178 177 183 163 163 157 150 180 170 173 198 212 204 200 182
1 240 241 251 252 255 251 286 295 307 341 103 211 244 131 174 185 88 247 155 172 186 216 190 151 188 181 175 176 178 186 184 178 179 151 132 159 178 162 170 234 199 200 183
189 243 228 225 273 223 305 258 281 229 307 63 104 322 355 174 149 143 172 174 200 200 288 171 137 185 185 182 182 183 187 182 185 160 129 105 95 58 141 190 203 203 207 203
223 259 229 247 223 118 299 245 261 272 50 284 144 272 316 329 335 51 67 154 189 208 224 350 38 61 188 195 217 197 185 178 183 160 167 160 168 163 202 182 182 199 192 218
269 296 299 298 215 156 231 269 232 264 0 34 302 64 256 2 6 354 36 36 284 233 208 121 134 117 118 85 33 353 74 180 172 181 177 181 171 168 178 161 185 207 225 217
246 246 221 211 241 217 275 343 8 33 85 346 230 133 337 22 319 300 39 8 5 346 178 139 135 150 127 134 91 5 290 70 300 186 176 187 185 173 167 187 183 199 233 242
334 282 275 165 288 343 68 59 343 347 360 218 292 61 43 324 338 353 3 9 15 12 56 168 152 177 186 162 156 198 240 124 64 340 197 203 185 175 180 190 176 175 209 217
222 324 186 194 174 189 221 145 159 236 224 244 22 327 211 258 338 32 40 37 355 71 109 236 244 185 189 200 183 213 163 167 134 55 291 218 191 170 191 190 185 186 187 213
176 275 308 185 150 131 262 51 192 132 344 74 309 325 60 10 20 28 52 43 288 311 138 198 223 219 181 199 187 224 200 176 172 223 225 235 193 170 184 198 193 183 181 217
264 344 21 303 63 19 77 227 21 13 0 48 299 296 174 207 204 162 107 165 264 280 41 184 217 226 222 215 200 214 232 206 180 208 217 246 208 189 181 187 196 199 184 216
168 86 304 33 23 187 351 25 54 126 140 160 151 264 213 174 186 169 195 215 264 291 282 187 214 223 196 255 180 201 225 218 203 213 229 225 195 189 178 195 206 206 185 209
352 125 110 245 284 90 142 215 78 100 287 140 149 265 209 152 176 194 226 240 342 299 292 200 216 217 199 236 241 189 222 240 229 243 215 195 174 177 182 201 206 206 196 209
359 32 25 349 349 357 38 314 186 160 95 246 138 259 131 116 170 242 350 332 307 281 278 207 210 214 219 229 224 212 203 228 235 238 189 190 195 191 203 209 200 200 200 199
83 94 144 174 220 228 329 329 330 122 125 235 225 223 205 181 231 323 347 286 310 35 360 69 88 228 234 231 238 190 209 220 220 200 186 196 201 198 208 205 195 204 197 197
101 124 108 165 233 15 314 321 317 321 244 159 247 176 75 153 209 248 231 279 96 74 58 35 25 9 288 245 216 196 216 226 232 224 196 218 215 199 204 205 205 212 205 201
354 248 124 351 340 2 331 308 296 286 75 55 101 53 138 132 136 102 64 164 73 82 80 67 50 11 6 335 253 237 214 223 213 220 207 206 209 203 203 214 214 209 211 202
88 110 64 277 327 14 351 284 41 37 16 160 119 163 170 130 131 109 68 53 86 83 76 68 21 61 341 4 11 24 296 220 223 219 248 232 211 202 210 212 207 204 212 199
179 112 119 214 50 126 243 303 100 71 28 36 81 131 157 133 144 65 14 318 68 73 68 54 55 39 4 25 30 342 354 296 217 223 244 259 252 234 216 212 212 208 195 203
161 120 117 137 171 272 349 359 343 114 17 21 92 113 121 100 42 7 286 61 130 102 96 90 87 79 31 22 3 31 23 25 30 14 355 309 246 226 227 230 228 215 206 211
91 100 120 127 134 226 235 296 353 117 64 351 69 87 117 107 72 258 283 316 9 60 63 63 66 67 56 10 33 38 18 20 359 351 356 310 306 290 239 226 231 220 206 206
18 9 145 149 197 287 237 318 343 63 201 169 121 137 138 178 203 228 244 284 268 238 227 170 140 149 176 159 90 42 6 5 319 339 328 329 323 322 314 300 271 235 217 191
121 109 212 90 125 239 306 32 127 199 310 133 85 123 138 150 134 154 233 262 286 277 304 305 298 274 257 203 133 184 290 272 310 348 338 333 326 321 327 329 325 337 8 339
37 168 189 164 204 269 346 98 91 148 118 100 95 47 84 71 24 346 327 37 61 72 41 28 32 313 302 286 223 225 249 263 289 323 322 317 322 329 334 16 358 336 64 110
303 338 99 71 347 89 87 65 81 102 110 128 107 42 80 282 318 12 81 247 291 280 282 248 261 258 261 255 249 231 247 255 261 273 281 295 314 318 345 44 331 277 173 160
212 62 144 75 178 105 33 75 81 57 57 38 359 13 34 71 2 210 258 272 266 257 255 256 261 257 262 282 275 274 272 267 260 265 271 275 281 303 334 103 300 273 313 232
187 180 127 205 235 141 202 185 65 85 68 61 54 356 322 288 273 263 281 314 299 319 341 353 333 325 298 305 302 299 297 282 270 272 259 243 237 258 280 218 210 285 292 297